Wind_Speed
28 29 29 29 28 28 29 29 30 29 29 29 30 30 30 30 30 31 32 32 32 33 33 34 34 33 33 34 35 35 35 35 35 36 36 36 36 35 35 35 35 36 35 35
28 29 30 30 29 28 28 29 30 30 29 28 29 29 30 30 31 31 32 32 33 33 33 33 33 32 32 32 33 34 35 35 36 36 36 36 36 37 36 36 35 35 35 35
29 29 30 30 28 28 28 29 30 30 29 29 30 30 30 31 32 33 33 32 32 32 32 32 32 31 30 31 32 33 34 34 35 35 36 36 37 37 36 36 35 34 34 34
29 29 30 29 28 28 29 29 29 29 29 29 29 30 31 32 32 32 32 32 31 31 31 31 31 30 30 31 31 32 33 33 33 34 35 35 35 34 34 34 34 33 34 33
29 29 30 29 29 28 28 28 28 28 28 28 29 29 29 31 31 31 30 31 30 30 30 30 29 29 30 31 31 32 32 32 32 33 33 34 34 34 34 34 34 34 33 33
29 29 28 28 28 28 28 28 28 28 28 28 28 27 27 29 29 29 29 29 29 29 30 29 29 28 29 30 32 32 33 33 33 33 33 32 33 34 34 34 33 33 32 31
28 28 27 27 27 27 27 27 26 26 26 26 27 27 27 27 28 28 28 28 28 28 28 28 28 28 28 29 29 30 31 31 32 32 32 31 31 31 31 31 31 30 30 29
27 27 27 27 27 26 25 25 26 25 26 26 26 27 27 27 27 27 27 27 27 27 27 27 27 27 27 27 27 27 27 28 28 29 29 29 29 29 29 28 28 28 27 26
26 25 26 26 25 25 25 25 24 24 24 25 25 26 26 27 27 27 26 26 26 26 26 27 27 26 26 26 26 26 26 26 26 26 27 27 27 27 27 26 26 25 25 24
25 24 24 25 24 24 24 24 24 24 24 25 25 25 26 26 27 27 26 26 26 27 27 27 27 26 26 26 26 26 26 25 25 26 26 25 24 24 24 24 23 23 23 23
24 24 24 24 24 24 23 23 24 24 24 25 25 25 25 26 26 27 26 26 26 27 27 27 27 26 26 26 26 26 26 26 25 25 24 23 23 22 21 21 21 22 22 22
24 24 23 23 23 23 23 23 24 24 24 25 25 25 25 25 26 26 26 26 26 26 26 26 26 26 26 25 25 25 25 25 25 24 23 22 21 20 19 19 20 20 21 21
24 24 23 23 23 23 23 23 24 24 24 24 25 25 25 25 25 25 26 26 26 26 26 26 26 26 26 25 25 25 25 24 24 23 22 21 20 19 18 18 19 19 19 19
23 23 23 22 22 23 23 23 24 24 24 25 25 25 24 24 24 25 25 25 25 25 25 25 25 25 24 24 24 24 24 23 23 22 21 20 19 19 19 19 18 18 17 17
21 22 22 22 22 23 23 23 23 24 24 24 24 24 24 24 24 24 24 24 24 24 24 25 25 24 23 23 22 22 22 22 22 21 21 20 20 20 19 19 18 17 17 17
21 21 22 22 22 22 22 22 22 23 23 23 23 23 23 23 23 23 23 23 23 24 24 24 24 23 22 21 21 21 21 21 21 21 20 19 19 19 18 18 18 17 17 16
21 21 21 21 21 22 22 22 22 23 23 23 23 23 22 22 22 22 22 23 23 22 23 22 21 21 21 21 21 21 21 21 20 19 18 18 18 17 17 17 16 16 15 15
21 21 21 21 21 21 21 21 21 22 22 21 21 21 21 21 21 21 22 22 22 22 22 21 20 20 20 21 20 20 20 19 18 18 17 17 17 17 16 15 15 14 14 14
20 20 21 20 20 20 20 21 21 21 21 21 21 21 20 20 21 21 21 21 21 21 21 20 19 19 20 20 20 19 18 17 16 16 15 15 15 15 14 14 13 13 13 13
20 20 20 20 20 19 20 20 20 20 20 20 20 20 19 19 20 20 20 21 21 21 20 19 18 18 18 18 18 18 17 16 15 15 14 14 13 13 13 13 12 12 12 12
20 20 20 20 20 20 19 19 19 19 19 19 19 18 18 19 19 19 19 19 20 19 19 18 18 17 17 17 17 16 16 15 14 14 13 12 12 12 12 12 12 12 11 11
19 19 19 20 20 20 19 19 19 19 18 18 17 17 17 18 18 18 18 19 19 18 18 17 17 17 17 17 16 16 15 15 14 13 12 11 11 11 11 11 11 10 10 10
19 19 19 19 19 19 19 19 19 18 17 17 17 17 17 17 18 18 18 18 18 18 17 17 17 17 17 16 16 16 15 14 13 12 11 11 10 10 9 9 9 9 9 10
19 19 19 19 19 19 19 19 18 18 17 17 17 16 17 17 18 18 18 18 18 17 16 16 17 17 16 16 16 15 14 13 12 11 10 10 9 9 9 8 8 9 9 9
19 19 20 20 20 19 19 18 18 18 17 17 17 17 17 17 17 17 17 17 17 17 16 16 17 17 16 16 15 14 13 12 12 11 10 9 9 9 9 8 8 8 9 9
19 19 20 19 19 19 18 18 18 18 18 17 17 17 18 18 18 18 17 17 17 16 16 16 16 16 16 16 15 14 13 12 12 11 10 9 9 8 8 8 8 8 8 8
19 20 20 20 19 19 18 18 18 18 18 18 18 18 18 18 18 18 18 18 17 16 16 16 16 16 15 14 14 13 12 12 11 11 10 9 9 9 8 8 8 8 8 8
Wind_Direction
281 283 285 286 285 284 283 283 285 288 290 290 289 288 289 289 290 290 290 290 289 287 286 285 283 281 280 280 279 278 277 277 278 278 278 278 279 280 280 281 280 279 277 274
279 281 284 284 285 285 284 283 285 286 288 289 289 288 288 290 291 291 292 292 290 288 287 286 285 283 281 281 280 279 278 278 278 278 278 278 279 279 279 280 281 280 277 275
280 282 283 283 287 288 287 286 286 286 287 287 287 288 289 290 291 293 293 294 293 291 289 288 286 284 282 282 281 281 280 280 279 278 278 278 279 278 278 278 279 280 278 275
283 283 283 286 287 288 288 288 287 287 287 288 288 289 289 291 292 293 294 294 294 292 290 289 286 283 283 283 283 283 283 283 282 280 279 278 278 277 277 278 279 279 278 276
284 284 285 286 287 288 288 287 287 287 288 287 288 289 289 291 293 294 295 296 295 294 293 290 287 283 282 283 284 285 285 285 283 282 281 279 278 277 276 277 278 278 277 275
284 286 286 288 288 288 289 287 287 287 288 289 289 290 291 292 294 294 295 296 295 295 295 293 290 287 284 284 284 285 285 285 284 283 282 281 279 277 276 277 277 277 276 275
284 286 287 289 290 290 289 289 287 287 288 289 290 292 293 294 295 295 296 296 296 295 295 295 292 290 288 288 287 287 286 286 286 285 284 283 280 278 277 277 277 276 274 272
282 285 288 289 290 290 290 289 289 289 289 290 290 291 292 294 296 296 297 297 297 297 297 297 294 293 292 292 291 289 289 289 289 288 286 284 281 280 278 277 276 275 273 270
280 284 287 288 288 288 289 289 289 290 291 291 292 291 292 294 296 298 298 297 297 297 297 298 297 296 294 292 292 291 292 292 293 293 290 286 283 281 279 277 275 273 270 269
279 281 285 287 287 287 289 289 290 291 292 293 293 293 293 295 296 298 299 298 298 297 298 299 298 297 295 294 293 292 293 294 295 296 295 291 286 283 280 276 273 271 270 268
279 280 282 285 287 287 288 289 290 291 293 294 293 292 293 294 296 298 299 299 299 299 298 299 299 298 296 294 293 292 293 293 294 294 294 292 289 286 281 277 274 273 270 268
279 280 282 284 286 286 287 288 290 291 293 295 294 294 294 296 298 298 299 300 299 299 299 299 300 299 297 295 294 293 293 294 293 292 292 291 291 288 283 279 276 275 273 270
278 279 281 285 286 287 288 289 290 292 295 296 295 294 294 296 297 298 300 300 300 300 300 300 299 298 297 296 294 294 295 295 294 292 291 289 288 287 284 282 280 279 276 273
278 280 281 283 285 287 288 289 290 291 293 294 295 295 294 295 296 298 300 300 300 301 302 302 300 300 299 297 296 296 296 295 293 291 289 287 286 285 284 283 281 280 278 273
279 281 282 284 286 288 290 291 291 292 294 295 296 296 296 296 297 298 300 301 303 304 305 305 302 301 299 298 298 298 297 296 294 291 288 285 285 285 283 282 280 278 275 274
282 283 284 286 287 290 291 292 292 293 295 296 296 296 297 297 298 300 301 302 304 305 307 306 304 301 299 299 299 299 298 297 296 293 288 286 285 283 282 281 278 276 273 271
283 285 286 287 288 291 292 292 292 293 296 297 297 298 299 299 299 301 303 305 306 308 309 308 305 303 301 301 301 300 300 298 297 293 288 286 284 283 283 282 279 275 271 268
283 286 288 289 290 291 292 294 295 296 297 297 297 299 301 301 301 302 303 305 307 308 309 308 306 306 305 306 305 304 303 300 297 293 289 287 285 283 283 281 278 275 269 266
284 287 289 290 291 292 293 294 295 296 297 297 298 299 301 303 303 304 305 307 308 309 310 309 306 307 308 309 308 306 305 303 299 294 290 288 285 282 281 280 277 273 269 267
286 288 289 290 292 293 294 295 296 296 297 298 298 298 300 303 304 304 305 309 310 310 310 309 308 309 310 312 311 309 307 305 301 296 292 289 286 282 279 278 276 272 269 267
287 288 289 290 291 293 294 295 296 296 297 298 298 298 300 303 305 306 307 310 312 313 312 311 311 311 312 314 314 313 310 308 305 300 294 291 288 284 279 277 274 271 267 266
286 287 289 289 290 292 294 295 296 296 297 298 299 300 302 305 307 308 308 311 313 315 314 313 312 313 314 314 315 314 313 310 308 305 299 295 292 288 283 278 274 271 267 265
286 288 290 290 290 291 293 294 294 294 295 297 300 302 304 307 309 309 309 310 311 313 314 314 314 313 314 314 314 314 313 312 310 307 301 297 295 292 289 283 277 273 268 264
285 286 287 288 289 290 292 292 291 291 292 295 299 302 304 307 309 309 309 309 310 311 311 312 313 313 314 315 314 313 313 312 312 312 308 302 298 296 293 290 284 276 267 265
286 287 287 286 287 288 288 288 288 287 289 293 297 301 304 307 308 310 311 311 311 310 309 310 312 313 314 315 315 314 313 312 311 311 309 305 301 298 294 290 286 280 274 272
285 285 285 285 286 286 286 286 287 287 287 289 293 297 301 305 306 308 309 310 310 310 311 312 313 314 314 314 314 313 312 312 309 307 306 302 297 295 293 289 286 281 276 272
288 287 286 285 284 283 283 284 284 286 287 288 290 293 297 301 303 305 306 307 307 306 308 311 314 316 317 316 314 311 310 310 309 306 302 298 294 290 287 283 281 278 274 269
Height
5613 5611 5610 5608 5607 5605 5603 5601 5600 5600 5598 5597 5594 5591 5588 5586 5584 5582 5579 5577 5574 5572 5569 5567 5565 5563 5561 5559 5558 5557 5556 5555 5554 5552 5551 5550 5549 5548 5547 5546 5545 5544 5543 5542
5606 5604 5602 5601 5600 5598 5596 5595 5593 5592 5591 5590 5586 5583 5581 5579 5576 5574 5571 5568 5566 5563 5561 5558 5556 5554 5552 5550 5549 5547 5546 5545 5544 5542 5541 5540 5539 5538 5537 5536 5535 5534 5533 5532
5598 5597 5594 5594 5594 5591 5590 5588 5586 5584 5584 5581 5579 5576 5574 5571 5569 5566 5563 5560 5557 5555 5552 5550 5547 5545 5543 5542 5540 5538 5537 5535 5534 5532 5531 5530 5529 5528 5527 5526 5525 5524 5523 5522
5590 5589 5587 5590 5587 5584 5582 5581 5578 5577 5575 5573 5571 5568 5566 5564 5561 5558 5555 5552 5549 5546 5544 5541 5539 5537 5535 5533 5531 5529 5528 5526 5524 5522 5521 5520 5519 5518 5517 5516 5515 5513 5512 5512
5582 5580 5580 5581 5579 5577 5575 5574 5571 5569 5567 5565 5563 5561 5559 5556 5553 5550 5547 5544 5541 5539 5536 5533 5531 5529 5526 5525 5523 5521 5519 5517 5515 5513 5511 5510 5509 5508 5507 5506 5505 5503 5502 5501
5575 5573 5573 5575 5572 5569 5568 5567 5565 5562 5560 5558 5556 5554 5553 5549 5546 5543 5540 5537 5534 5531 5528 5526 5523 5520 5518 5516 5514 5512 5510 5508 5506 5503 5501 5500 5499 5497 5496 5495 5494 5493 5492 5492
5568 5566 5566 5566 5564 5562 5561 5560 5557 5555 5553 5551 5549 5547 5545 5542 5539 5536 5533 5530 5527 5524 5521 5518 5515 5513 5510 5508 5506 5503 5501 5499 5496 5494 5492 5490 5489 5487 5486 5486 5485 5484 5483 5483
5562 5560 5562 5558 5556 5555 5554 5552 5550 5548 5546 5544 5542 5540 5538 5535 5532 5529 5526 5523 5520 5517 5515 5511 5508 5506 5503 5501 5498 5495 5493 5490 5488 5485 5483 5481 5479 5478 5477 5476 5476 5475 5475 5475
5557 5557 5554 5551 5549 5548 5546 5545 5543 5541 5540 5538 5536 5533 5531 5529 5526 5523 5520 5517 5514 5511 5508 5505 5502 5499 5496 5494 5491 5488 5485 5483 5480 5478 5475 5472 5471 5469 5468 5468 5467 5467 5467 5467
5550 5549 5547 5545 5543 5542 5540 5539 5537 5535 5533 5531 5529 5527 5525 5522 5520 5517 5514 5511 5508 5505 5502 5499 5495 5492 5489 5487 5484 5481 5479 5476 5473 5471 5468 5465 5463 5462 5461 5460 5460 5460 5460 5461
5543 5543 5541 5539 5537 5536 5534 5533 5531 5529 5527 5525 5523 5521 5518 5516 5513 5510 5507 5504 5501 5498 5495 5492 5489 5486 5483 5480 5477 5474 5472 5469 5467 5464 5461 5459 5457 5455 5454 5453 5453 5453 5454 5454
5537 5536 5534 5533 5531 5530 5528 5527 5525 5524 5522 5519 5517 5514 5512 5509 5507 5504 5501 5498 5495 5492 5489 5486 5482 5479 5476 5473 5470 5467 5465 5463 5460 5458 5455 5453 5451 5450 5448 5448 5447 5447 5447 5447
5530 5529 5528 5527 5525 5524 5522 5521 5519 5517 5515 5513 5510 5508 5505 5503 5500 5497 5494 5491 5488 5485 5482 5479 5476 5472 5469 5466 5463 5461 5458 5456 5454 5451 5449 5447 5446 5445 5444 5443 5442 5442 5441 5441
5523 5523 5522 5521 5519 5518 5516 5515 5513 5511 5509 5507 5504 5502 5499 5497 5494 5491 5488 5485 5482 5479 5476 5472 5469 5466 5462 5459 5456 5454 5452 5449 5447 5445 5443 5442 5441 5439 5438 5438 5437 5437 5436 5436
5517 5516 5516 5515 5513 5512 5510 5509 5507 5505 5503 5501 5498 5496 5493 5490 5488 5485 5482 5479 5476 5472 5469 5466 5462 5459 5456 5453 5450 5448 5446 5443 5441 5439 5437 5436 5435 5434 5433 5432 5432 5431 5431 5431
5512 5511 5510 5509 5508 5506 5505 5503 5501 5500 5497 5495 5493 5490 5487 5484 5482 5479 5476 5473 5470 5467 5463 5460 5456 5453 5450 5447 5445 5442 5440 5437 5435 5433 5432 5431 5430 5429 5428 5427 5427 5426 5426 5426
5507 5506 5505 5503 5502 5501 5499 5497 5496 5494 5492 5489 5487 5484 5481 5478 5476 5473 5470 5467 5464 5461 5457 5454 5451 5448 5445 5442 5439 5437 5434 5432 5430 5428 5426 5425 5425 5424 5423 5422 5421 5421 5421 5421
5501 5500 5499 5498 5497 5495 5494 5492 5490 5488 5486 5484 5481 5479 5476 5473 5470 5468 5465 5462 5459 5456 5452 5449 5446 5443 5440 5437 5434 5432 5429 5427 5425 5423 5422 5421 5420 5419 5418 5418 5417 5417 5417 5417
5496 5495 5493 5492 5491 5490 5488 5487 5485 5483 5481 5478 5476 5474 5471 5468 5465 5463 5460 5457 5454 5451 5448 5444 5441 5438 5436 5433 5430 5427 5425 5422 5420 5419 5418 5417 5416 5415 5414 5414 5413 5413 5413 5413
5490 5489 5488 5487 5486 5484 5483 5481 5479 5477 5475 5473 5471 5468 5466 5463 5461 5458 5455 5452 5449 5446 5443 5440 5437 5434 5431 5428 5426 5423 5420 5418 5416 5415 5413 5412 5411 5411 5410 5410 5410 5409 5409 5410
5485 5484 5483 5482 5481 5479 5478 5476 5474 5472 5470 5468 5466 5463 5461 5459 5456 5453 5451 5448 5445 5442 5439 5436 5433 5430 5428 5425 5422 5419 5417 5415 5413 5411 5410 5409 5408 5407 5406 5406 5406 5406 5406 5406
5480 5479 5478 5477 5475 5474 5472 5471 5469 5467 5465 5463 5461 5459 5457 5454 5452 5449 5446 5444 5441 5438 5435 5432 5429 5427 5424 5421 5419 5416 5414 5411 5409 5408 5406 5405 5404 5404 5403 5403 5403 5403 5403 5404
5475 5474 5472 5471 5470 5469 5467 5466 5464 5462 5460 5458 5456 5454 5452 5450 5448 5445 5443 5440 5437 5434 5431 5429 5426 5423 5421 5418 5416 5413 5411 5408 5407 5405 5403 5402 5402 5401 5400 5400 5400 5400 5401 5401
5469 5468 5467 5466 5465 5463 5462 5460 5458 5457 5455 5453 5452 5450 5448 5446 5444 5441 5439 5436 5433 5431 5428 5425 5423 5420 5418 5415 5412 5410 5407 5405 5404 5402 5401 5400 5399 5399 5398 5398 5398 5398 5399 5399
5463 5462 5461 5460 5459 5458 5457 5455 5453 5452 5450 5449 5447 5446 5444 5442 5440 5437 5435 5432 5430 5427 5425 5422 5420 5417 5414 5412 5409 5407 5405 5403 5401 5400 5398 5398 5397 5397 5397 5396 5396 5396 5397 5397
5457 5456 5455 5454 5453 5452 5451 5449 5448 5447 5445 5444 5443 5441 5439 5437 5435 5433 5431 5428 5426 5424 5422 5419 5417 5414 5411 5409 5407 5404 5402 5400 5399 5398 5397 5396 5395 5395 5395 5394 5394 5394 5394 5395
5451 5450 5449 5448 5447 5446 5445 5443 5442 5441 5440 5439 5438 5436 5435 5433 5431 5429 5427 5425 5422 5420 5418 5416 5414 5411 5409 5406 5404 5402 5400 5399 5397 5396 5395 5394 5393 5393 5393 5392 5392 5392 5392 5392